Orbital Elements at Epoch 2459200.5 (2020-Dec-17.0) TDB
Reference: JPL 28 (heliocentric ecliptic J2000)
Element | Value | Uncertainty (1-sigma) | Units |
e | .1695998828336414 | 3.2571e-08 | |
a | 2.601128309196964 | 9.2642e-09 | au |
q | 2.159977252721891 | 8.3399e-08 | au |
i | 3.316504443394993 | 3.2909e-06 | deg |
node | 77.29083587631909 | 7.4273e-05 | deg |
peri | 54.57303942089018 | 7.5489e-05 | deg |
M | 86.41512204675887 | 1.2797e-05 | deg |
tp | 2458832.685930808579 (2019-Dec-15.18593081) | 5.4132e-05 | TDB |
period | 1532.290434505934 4.20 | 8.1861e-06 2.241e-08 | d yr |
n | .2349424051035579 | 1.2552e-09 | deg/d |
Q | 3.042279365672037 | 1.0835e-08 | au |
|
| | Orbit Determination Parameters
Additional Information
|